Liberia, Costa Rica

7:40 PM CST on September 23, 2017 (GMT -0600)
Liberia

Weather History for 78774 - October, 2012

Change the Weather History Date:

Friday, October 26, 2012

  Actual Average Record
Temperature  
Mean Temperature 78 °F -  
Max Temperature 85 °F 85 °F - ()
Min Temperature 72 °F 72 °F - ()
Cooling Degree Days 14    
Growing Degree Days 28 (Base 50)    
Moisture  
Dew Point 73 °F    
Average Humidity 84    
Maximum Humidity 94    
Minimum Humidity 66    
Precipitation  
Precipitation 0.79 in - - ()
Sea Level Pressure  
Sea Level Pressure 29.86 in    
Wind  
Wind Speed 4 mph ()    
Max Wind Speed 8 mph    
Max Gust Speed -    
Visibility 6.9 miles    
Events Fog , Rain    
T = Trace of Precipitation, MM = Missing Value Source: Averaged Metar Reports

Daily Weather History Graph

Daily Weather History Graph

Search for Another Location

Airport or City:

Trip Planner

Search our weather history database for the weather conditions in past years. The results will help you decide how hot, cold, wet, or windy it might be!

Date:

Astronomy

Oct. 26, 2012 Rise Set
Actual Time 5:31 AM CST 5:19 PM CST
Civil Twilight 5:10 AM CST 5:40 PM CST
Nautical Twilight 4:45 AM CST 6:05 PM CST
Astronomical Twilight 4:20 AM CST 6:30 PM CST
Moon 3:12 PM CST (10/26) 2:54 AM CST (10/26)
Length of Visible Light 12h 30m
Length of Day
11h 47m
Waxing Gibbous, 91% of the Moon is Illuminated
Oct 26
Waxing Gibbous
Oct 29
Full
Nov 6
Last Quarter
Nov 13
New
Nov 20
First Quarter

Hourly Weather History & Observations

Time (CST) Temp. Heat Index Dew Point Humidity Pressure Visibility Wind Dir Wind Speed Gust Speed Precip Events Conditions
6:00 AM 73 °F - 71 °F 92% 29.86 in 12 mi East 2.3 mph - -   Overcast
6:00 AM 73.4 °F - 71.6 °F 94% 29.85 in 6.2 mi East 2.3 mph - N/A Fog Overcast
7:00 AM 75.2 °F - 73.4 °F 94% 29.88 in 6.2 mi ESE 3.5 mph - N/A   Mostly Cloudy
8:00 AM 77.0 °F - 71.6 °F 83% 29.90 in 6.2 mi ESE 3.5 mph - N/A   Mostly Cloudy
9:00 AM 82 °F - 73 °F 68% 29.93 in 12 mi SE 4.6 mph - -   Overcast
9:00 AM 82.4 °F 88.2 °F 73.4 °F 74% 29.91 in 6.2 mi SE 4.6 mph - N/A   Mostly Cloudy
10:00 AM 82.4 °F 88.2 °F 73.4 °F 74% 29.91 in 6.2 mi SSE 5.8 mph - N/A   Scattered Clouds
11:00 AM 82.4 °F 88.2 °F 73.4 °F 74% 29.89 in 6.2 mi SSE 3.5 mph - N/A   Mostly Cloudy
12:00 PM 80 °F - 74 °F 78% 29.88 in 6 mi SW 6.9 mph - - Rain Light Rain
12:00 PM 80.6 °F 86.2 °F 75.2 °F 84% 29.87 in 6.2 mi SW 6.9 mph - N/A Rain Light Rain
1:00 PM 86.0 °F 93.4 °F 73.4 °F 66% 29.84 in 6.2 mi West 4.6 mph - N/A   Mostly Cloudy
2:00 PM 82.4 °F 88.2 °F 73.4 °F 74% 29.81 in 6.2 mi West 8.1 mph - N/A   Mostly Cloudy
3:00 PM 78 °F - 74 °F 85% 29.81 in 12 mi South 5.8 mph - - Rain Light Rain
3:00 PM 78.8 °F - 73.4 °F 83% 29.80 in 6.2 mi South 5.8 mph - N/A Rain Light Rain
4:00 PM 77.0 °F - 73.4 °F 89% 29.81 in 6.2 mi ESE 5.8 mph - N/A Rain Rain
5:00 PM 75.2 °F - 73.4 °F 94% 29.82 in 5.6 mi Calm Calm - N/A Rain Rain
6:00 PM 75 °F - 73 °F 93% 29.84 in 5 mi North 5.8 mph - - Rain Light Rain
6:00 PM 75.2 °F - 73.4 °F 94% 29.83 in 5.0 mi North 5.8 mph - N/A Rain Light Rain
7:00 PM 75.2 °F - 73.4 °F 94% 29.85 in 5.6 mi North 3.5 mph - N/A   Drizzle
8:00 PM 75.2 °F - 73.4 °F 94% 29.88 in 6.2 mi East 3.5 mph - N/A   Mostly Cloudy